Terminal Aerodrome Forecast
Issued by NWS Raleigh/Durham, NC

Home | Current Version | Previous Version | Text Only | Print | Product List | Glossary On
Versions: 1 2 3 4 5 6 7 8 9 10 11 12 13 14 15 16 17 18 19 20 21 22 23 24 25 26 27 28 29 30 31 32 33 34 35 36 37 38 39 40 41 42 43 44 45 46 47 48 49 50
000
FTUS42 KRAH 032326
TAFRDU
TAF
KRDU 032326Z 0400/0424 20005KT P6SM FEW018 BKN070
      TEMPO 0402/0404 2SM SHRA BR SCT005 BKN010
     FM040500 22005KT P6SM FEW025 SCT150
     FM041400 25010G17KT P6SM SCT050 BKN120=

USA.gov is the U.S. government's official web portal to all federal, state and local government web resources and services.